Location: Holcomb Observatory
(44.4922°N, 73.1654°W)
Time: 02:46:25
(UTC-04:00)

Cosmos 2360 Rocket - Visible Passes

Search period start: 24 September 2017 00:00
Search period end: 04 October 2017 00:00
Orbit: 835 x 844 km, 71.0° (Epoch: 23 September)

Date Brightness Start Highest point End Pass type
(mag) Time Alt. Az. Time Alt. Az. Time Alt. Az.
24 Sep 4.5 21:51:56 10° NNE 21:53:19 12° NNE 21:53:19 12° NNE visible
24 Sep 4.8 23:34:03 10° NNW 23:35:04 16° NNW 23:35:04 16° NNW visible
25 Sep 4.5 21:36:26 10° NNE 21:37:50 12° NNE 21:37:50 12° NNE visible
25 Sep 4.7 23:18:23 10° NNW 23:19:35 17° NNW 23:19:35 17° NNW visible
26 Sep 4.5 21:20:58 10° NNE 21:22:22 12° NNE 21:22:22 12° NNE visible
26 Sep 4.6 23:02:43 10° NNW 23:04:07 18° NNW 23:04:07 18° NNW visible
27 Sep 4.4 21:05:33 10° NNE 21:06:55 11° NE 21:06:55 11° NE visible
27 Sep 4.4 22:47:03 10° NNW 22:48:40 19° N 22:48:40 19° N visible
28 Sep 4.4 20:50:14 10° NNE 20:51:23 11° NE 20:51:29 11° NE visible
28 Sep 4.3 22:31:24 10° NNW 22:33:15 21° N 22:33:15 21° N visible
29 Sep 4.4 20:35:20 10° NNE 20:35:37 10° NE 20:35:55 10° NE visible
29 Sep 4.2 22:15:44 10° NNW 22:17:51 22° N 22:17:51 22° N visible
30 Sep 4.0 22:00:05 10° NNW 22:02:28 24° N 22:02:28 24° N visible
01 Oct 3.8 21:44:26 10° NNW 21:47:07 26° N 21:47:07 26° N visible
01 Oct 5.1 23:28:40 10° NW 23:28:52 11° NW 23:28:52 11° NW visible
02 Oct 3.7 21:28:47 10° NNW 21:31:47 27° N 21:31:47 27° N visible
02 Oct 4.9 23:12:56 10° NW 23:13:33 13° NW 23:13:33 13° NW visible
03 Oct 3.5 21:13:08 10° NNW 21:16:29 29° NNE 21:16:29 29° NNE visible
03 Oct 4.8 22:57:11 10° NW 22:58:15 15° NW 22:58:15 15° NW visible
